Location: Ch?enovice
(49.7164°N, 15.2160°E)
Time: 11:28:40
(UTC+00:00)

USA 267 - Pass Details

Date: 18 November 2025
Orbit: 1100 x 1108 km, 123.0° (Epoch: 21 November)

Event Time Altitude Azimuth Distance (km) Brightness Sun altitude
Rises 02:54:09 0° 57° (ENE) 3,924 7.1 -32.3°
Reaches altitude 10° 02:56:51 10° 65° (ENE) 2,963 6.3 -31.8°
Maximum altitude 03:02:53 39° 133° (SE) 1,596 4.3 -30.9°
Enters shadow 03:06:04 25° 183° (S) 2,067 4.6 -30.4°
